{"data":{"norad_id":49772,"epoch":"2026-05-24T07:46:23.520576Z","epoch_age_seconds":123579,"freshness":"FRESH","line1":"1 49772U 21115BA  26144.32388334  .00018716  00000+0  31162-3 0  9998","line2":"2 49772  53.1940 159.1496 0003315   9.9942 350.1134 15.52091963252190","mean_motion":15.52091963,"eccentricity":0.0003315,"inclination_deg":53.194,"raan_deg":159.1496,"arg_perigee_deg":9.9942,"mean_anomaly_deg":350.1134,"bstar":0.00031162,"rev_number":25219,"period_min":92.778007639229,"perigee_km":408.36865722077,"apogee_km":412.86960253488,"semimajor_km":6788.7561298778,"source":"CELESTRAK","updated_at":"2026-05-25T13:37:57.275105Z"}}